EW9135 Weather Reports


time (UTC)temp
C
wind
direction
speed
KPH
gust
KPH
rain 1hr
cm
rain 24hr
cm
rain mn
cm
humidity
%
barometer
mb
20260506073153 12 248 0.0 0.0 0.00 0.00 0.00 42 1025.6
20260506072649 12 265 0.0 0.0 0.00 0.00 0.00 42 1025.3
20260506072142 12 235 0.0 0.0 0.00 0.00 0.00 44 1025.3
20260506071637 12 245 0.0 0.0 0.00 0.00 0.00 45 1025.6
20260506071133 12 270 0.0 0.0 0.00 0.00 0.00 44 1025.6
20260506070626 12 275 0.0 0.0 0.00 0.00 0.00 45 1025.3
20260506070121 12 253 0.0 0.0 0.00 0.00 0.00 44 1025.3
20260506062038 13 258 0.0 0.0 0.00 0.00 0.00 43 1024.8
20260506061535 13 265 0.0 0.0 0.00 0.00 0.00 43 1025.3
20260506061529 13 293 0.0 0.0 0.00 0.00 0.00 43 1024.8
20260506060522 13 303 0.0 0.0 0.00 0.00 0.00 43 1024.8
20260506050926 15 248 0.0 0.0 0.00 0.00 0.00 39 1024.1
20260506050419 15 262 0.0 0.0 0.00 0.00 0.00 39 1024.1
20260506044905 15 274 0.0 0.0 0.00 0.00 0.00 38 1024.1
20260506044859 15 235 0.0 0.0 0.00 0.00 0.00 36 1023.8
20260506043854 15 243 0.0 0.0 0.00 0.00 0.00 36 1024.1
20260506043349 16 241 0.0 0.0 0.00 0.00 0.00 36 1024.1
20260506043344 16 271 0.0 0.0 0.00 0.00 0.00 36 1024.1
20260506042338 16 277 0.0 0.0 0.00 0.00 0.00 36 1023.8
20260506041831 16 271 0.0 0.0 0.00 0.00 0.00 34 1023.5
20260506041326 16 283 0.0 0.0 0.00 0.00 0.00 33 1023.5
20260506040823 16 231 0.0 0.0 0.00 0.00 0.00 33 1023.5
20260506040315 16 273 0.0 0.0 0.00 0.00 0.00 33 1023.5
20260506035810 16 237 0.0 0.0 0.00 0.00 0.00 32 1023.5
20260506035307 16 208 0.0 0.0 0.00 0.00 0.00 32 1023.5
20260506035301 16 234 0.0 0.0 0.00 0.00 0.00 32 1023.5
20260506034254 16 294 0.0 0.0 0.00 0.00 0.00 32 1023.5
20260506033750 16 150 0.0 0.0 0.00 0.00 0.00 32 1023.5
20260506033244 16 241 0.0 0.0 0.00 0.00 0.00 32 1023.5
20260506032738 16 210 0.0 0.0 0.00 0.00 0.00 32 1023.1
20260506032235 16 272 0.0 1.6 0.00 0.00 0.00 32 1023.1
20260506031729 16 198 0.0 0.0 0.00 0.00 0.00 32 1023.1
20260506031723 16 270 0.0 0.0 0.00 0.00 0.00 32 1023.1
20260506030719 16 246 0.0 0.0 0.00 0.00 0.00 32 1023.1
20260506030713 16 256 0.0 0.0 0.00 0.00 0.00 32 1023.1
20260506025706 16 164 0.0 0.0 0.00 0.00 0.00 32 1022.8
20260506025202 16 220 0.0 0.0 0.00 0.00 0.00 32 1023.1
20260506024656 16 225 0.0 0.0 0.00 0.00 0.00 32 1022.8
20260506024153 17 256 0.0 0.0 0.00 0.00 0.00 32 1022.8
20260506023647 17 186 0.0 0.0 0.00 0.00 0.00 31 1022.8
20260506023140 17 221 0.0 0.0 0.00 0.00 0.00 31 1022.8
20260506022635 17 248 0.0 0.0 0.00 0.00 0.00 31 1022.8
20260506022131 17 320 0.0 1.6 0.00 0.00 0.00 31 1022.8
20260506021624 17 0 0.0 1.6 0.00 0.00 0.00 31 1022.4
20260506021119 17 228 0.0 0.0 0.00 0.00 0.00 31 1022.4
20260506020615 17 258 0.0 0.0 0.00 0.00 0.00 31 1022.4
20260506020109 17 243 0.0 0.0 0.00 0.00 0.00 31 1022.4
20260506015604 17 242 0.0 0.0 0.00 0.00 0.00 30 1022.1
20260506015100 17 248 0.0 0.0 0.00 0.00 0.00 30 1022.1
20260506014553 17 251 0.0 0.0 0.00 0.00 0.00 30 1022.4
20260506014048 18 243 0.0 0.0 0.00 0.00 0.00 30 1022.4
20260506013543 18 251 0.0 0.0 0.00 0.00 0.00 32 1022.4
20260506013037 18 210 0.0 0.0 0.00 0.00 0.00 32 1022.4